Location: ?
(35.4214°N, 139.3011°E)
Time: 20:34:00
(UTC+00:00)

Meteor 2-17 Rocket - Pass Details

Date: 28 October 2020
Orbit: 935 x 956 km, 82.5° (Epoch: 04 December)

Event Time Altitude Azimuth Distance (km) Brightness Sun altitude
Rises 11:28:33 0° 342° (NNW) 3,598 7.8 -44.4°
Reaches altitude 10° 11:31:15 10° 333° (NNW) 2,650 7.1 -44.9°
Enters shadow 11:31:32 11° 331° (NNW) 2,560 7.0 -45.0°
